Location: *
(45.5667°S, 177.5167°W)
Time: 16:14:48
(UTC+00:00)

Cosmos 1766 Rocket - Pass Details

Date: 29 May 2022
Orbit: 603 x 633 km, 82.5° (Epoch: 06 July)

Event Time Altitude Azimuth Distance (km) Brightness Sun altitude
Rises 05:58:33 0° 13° (NNE) 2,857 7.0 -17.1°
Reaches altitude 10° 06:00:52 10° 21° (NNE) 1,962 6.0 -17.5°
Maximum altitude 06:04:53 38° 89° (E) 947 4.0 -18.2°
Enters shadow 06:04:54 38° 89° (E) 947 4.0 -18.2°
